Location: Sevilla
(37.3933°N, 5.9839°W)
Time: 04:52:29
(UTC+02:00)

Transit 2A Rocket - Pass Details

Date: 03 July 2024
Orbit: 582 x 910 km, 66.7° (Epoch: 15 July)

Event Time Altitude Azimuth Distance (km) Brightness Sun altitude
Rises 20:01:52 0° 221° (SW) 3,083 8.5 18.7°
Reaches altitude 10° 20:04:10 10° 227° (SW) 2,219 7.9 18.3°
Maximum altitude 20:09:07 51° 303° (WNW) 980 6.7 17.3°
Drops below altitude 10° 20:14:35 10° 18° (NNE) 2,445 7.7 16.3°
Sets 20:17:14 0° 24° (NNE) 3,429 8.3 15.8°
